Location: Courcelles
(49.2596°N, 1.7419°E)
Time: 21:45:45
(UTC+00:00)

ATLAS 2AS CENTAUR R/B - Pass Details

Date: 17 November 2025
Orbit: 1047 x 1164 km, 63.7° (Epoch: 05 December)

Event Time Altitude Azimuth Distance (km) Brightness Sun altitude
Rises 18:14:49 0° 315° (NW) 3,859 6.2 -20.3°
Reaches altitude 10° 18:17:39 10° 322° (NW) 2,890 5.4 -20.8°
Maximum altitude 18:24:06 44° 33° (NNE) 1,430 3.1 -21.8°
Enters shadow 18:25:35 38° 65° (ENE) 1,538 3.0 -22.1°
